User: anonymous   Login
Location: Harbor Island
(32.3990°N, 80.4435°W)
Time: 09:33:17
(UTC-04:00)
Language:

Cosmos 1455 - Orbit

View from above orbital plane
View from above orbital plane
View from above satellite
View from above satellite

Ground track
Ground track

The orbit data is extracted from the following two-line orbital elements,

1 14032U 83037A   17117.63226399 +.00000914 +00000-0 +44469-4 0  9993
2 14032 082.5144 137.2000 0019325 095.0347 265.3093 15.16960728853714
Epoch (UTC): 27 April 2017 15:10:27
Eccentricity: 0.0019325
inclination: 82.5144°
perigee height: 502 km
apogee height: 528 km
right ascension of ascending node: 137.2000°
argument of perigee: 95.0347°
revolutions per day: 15.16960728
mean anomaly at epoch: 265.3093°
orbit number at epoch: 85371

The dashed part of the orbit path shows where the satellite is in the earth's shadow,  

DLR